www.pogodaiklimat.ru

Погода и климат >> Архив погоды >> Россия >> Магаданская область >> Талая


ПОГОДА в Талой

  • Прогноз погоды в Талой
  • Монитор погоды в Талой

АРХИВ ПОГОДЫ в Талой

Время (UTC), дата Ветер
(напр.,м/с)
 
Видим.   Явления Облачность Т
(С)
Тd
(С)
f
(%)
Тe
(С)
Тes
(С)
Комфортность P
(гПа)
Po
(гПа)
Тmin
(С)
Tmax
(С)
R
(мм)
R24
(мм)
S
(см)
18 9.06 штиль 0 20 км в посл. час ливневой дождь 10/10 1000 м
[Cb cap]
+6.6 +6.1 97 +5 +5 1017.4 934.0
21 9.06 ЮЗ 1 50 км 10/10 600 м
[Cb cap]
+7.6 +5.9 89 +7 +7 1017.4 934.3 +6.3 1
00 10.06 штиль 0 20 км слаб. ливневой дождь 10/10 600 м
[Cb cap]
+8.8 +5.9 82 +8 +8 1016.8 934.1
03 10.06 ЮВ 1 50 км {ливн. осадки} 9/9 1000 м
[Cb cap]
+12.1 +5.7 65 +12 +14 1014.6 933.0
06 10.06 С 1 50 км {ливн. осадки} 6/6 1000 м
[Cb cap]
+13.8 +5.0 55 +14 +18 1013.6 932.5
09 10.06 Ю 1 50 км 8/8 1000 м
[Cb cap]
+11.1 +3.3 59 +11 +11 1015.2 933.2 +14.8 0.4
12 10.06 ЮВ 1 50 км 6/0
[Ac trans Ci fib]
+7.5 +2.2 69 +7 +7 1017.0 933.9
15 10.06 СВ 1 50 км 6/0
[Ac trans Ci fib]
+2.8 +1.0 88 +1 +1 1018.9 934.3
18 10.06 В 1 50 км 4/0
[Ci fib]
+0.1 -0.3 97 -2 -2 1020.2 934.6
21 10.06 ЮЗ 1 50 км 4/0
[Ci fib]
+9.4 +1.5 58 +9 +15 1017.0 934.4 +0.1
00 11.06 ЮЗ 2 50 км 8/3 1000 м
[Cu hum Ac cast Ci fib]
+13.6 +1.1 43 +13 +19 1014.9 933.6
03 11.06 Ю 1 50 км 8/5 1000 м
[Cu med, cong Ac trans Ci fib]
+15.1 +1.5 40 +16 +21 1013.3 932.5
06 11.06 Ю 2 50 км 6/6 1000 м
[Cu med, cong]
+14.7 +0.5 38 +15 +17 1012.9 932.0
09 11.06 З 2 50 км 3/3 1000 м
[Sc diur, vesp]
+13.2 +1.7 46 +13 +14 1013.4 932.1 +16.1
12 11.06 Ю 1 50 км 1/0
[Ac lent]
+7.9 +2.5 69 +7 +7 1016.1 933.2
15 11.06 штиль 0 50 км ясно +2.0 +1.2 94 +1 +1 1018.1 933.3
18 11.06 штиль 0 50 км 3/0
[Ci fib]
+1.6 +0.9 95 0 +1 1018.5 933.5
21 11.06 Ю 1 50 км 1/1 1000 м
[Cu hum]
+11.4 +2.8 55 +12 +17 1015.5 933.6 +0.3
00 12.06 З 2 50 км 9/5 1000 м
[Cu med, cong Ci fib]
+13.2 +1.3 44 +13 +18 1014.1 932.7
03 12.06 З 3 50 км 9/8 1000 м
[Cu med, cong Ci fib]
+15.2 +0.2 36 +15 +17 1012.5 931.8
06 12.06 З 2 50 км 9/8 1000 м
[Cu Sc Ci fib]
+15.9 +0.8 36 +16 +17 1011.7 931.3
09 12.06 З 2 50 км 4/3 1000 м
[Sc Ac trans Ci fib]
+14.3 +0.4 39 +14 +15 1012.1 931.2 +16.8
12 12.06 Ю 1 50 км 3/0
[Ac lent Ci fib]
+8.8 +2.1 63 +8 +8 1014.8 932.2
15 12.06 В 1 50 км ясно +2.2 +1.3 94 0 0 1017.4 932.7
18 12.06 штиль 0 50 км 5/0
[Ci fib]
+0.7 +0.4 98 -1 -0 1018.4 933.2
21 12.06 штиль 0 50 км 4/4 1000 м
[Cu Sc]
+9.8 +3.0 63 +9 +13 1015.6 933.2 0.0
00 13.06 ЮЗ 2 50 км 8/8 1000 м
[Cb cap]
+12.1 0.0 43 +12 +14 1014.7 933.0
03 13.06 ЮЗ 2 50 км 9/9 1000 м
[Cb cap]
+14.8 -0.5 35 +15 +16 1013.5 932.6
06 13.06 ЮЗ 2 50 км 6/6 1000 м
[Cb cap]
+14.1 -0.7 36 +14 +17 1013.2 932.2
09 13.06 З 1 50 км 6/6 1000 м
[Cb cap]
+13.1 +0.8 43 +14 +14 1013.6 932.3 +16.9
12 13.06 В 1 50 км 10/0
[Cs]
+5.6 +1.2 73 +5 +5 1016.3 932.7
15 13.06 ЮВ 1 50 км 1/0
[Ci fib]
+1.9 -0.4 85 0 0 1018.0 933.1
18 13.06 штиль 0 50 км ясно +0.1 -0.6 95 -1 -1 1018.9 933.4
21 13.06 В 1 50 км ясно +12.1 +2.1 50 +12 +18 1014.8 933.2 -0.5
00 14.06 З 2 50 км 4/4 1000 м
[Cu hum]
+16.9 -1.1 29 +17 +25 1012.3 932.0
03 14.06 ЮЗ 1 20 км дым 3/3
[Cu hum]
+17.0 -3.0 25 +18 +29 1011.7 931.5
06 14.06 Ю 2 20 км дым 4/4 1000 м
[Cu hum]
+18.6 -2.3 24 +19 +23 1010.5 930.8
09 14.06 З 1 20 км дым 3/1 1000 м
[Cu hum Ac cuf]
+16.9 -2.2 27 +18 +19 1011.3 931.1 +19.9
12 14.06 штиль 0 50 км ясно +10.1 +0.7 52 +10 +10 1015.3 933.0
15 14.06 В 1 50 км ясно +3.8 +0.5 79 +2 +2 1018.2 933.9
18 14.06 штиль 0 50 км 9/0
[Ci fib]
+2.4 +1.3 92 +1 +2 1019.3 934.5
21 14.06 штиль 0 50 км 9/0
[Ci fib]
+14.3 +2.6 45 +14 +20 1015.9 934.7 +1.9
00 15.06 З 1 50 км 5/0
[Ci fib]
+18.6 -1.9 25 +20 +33 опасность
простуды
1014.1 934.1
03 15.06 Ю 2 20 км дым 4/4 1000 м
[Cu med, cong]
+20.7 -3.6 19 +21 +29 комфорт 1012.9 933.6
06 15.06 ЮЗ 1 20 км дым 5/5 1000 м
[Cu med, cong]
+21.7 -3.5 18 +21 +25 комфорт 1012.2 933.2
09 15.06 ЮЗ 2 50 км 5/3 1000 м
[Cu Sc Ac trans]
+18.3 -1.6 26 +19 +19 1013.9 933.9 +21.8
12 15.06 Ю 1 50 км ясно +12.1 -2.8 35 +13 +13 1017.7 935.7
15 15.06 В 1 50 км 3/0
[Ci fib]
+4.4 -1.7 65 +3 +3 1020.7 936.4
18 15.06 штиль 0 50 км 8/0
[Ac trans Ci fib]
+2.4 -1.1 78 +2 +2 1021.6 936.5
21 15.06 штиль 0 50 км 3/0
[Ci fib]
+15.2 +0.3 36 +15 +22 1017.1 936.1 +1.8
00 16.06 Ю 2 50 км 8/0
[Ci fib]
+17.4 -5.5 20 +18 +28 1015.7 935.3
03 16.06 Ю 2 50 км 10/0
[Ac trans]
+16.3 -0.5 32 +17 +22 1015.3 934.7
06 16.06 Ю 2 50 км 10/8 1000 м
[Cb cap Ac trans]
+15.3 +2.1 41 +15 +16 1014.6 933.8
09 16.06 ЮВ 2
{10}
50 км 10/8 1000 м
[Cb cap Ac trans]
+10.8 +3.4 60 +10 +10 1015.9 933.8 +18.0
12 16.06 ЮЗ 1 50 км 10/8 1000 м
[Cb cap Ac trans]
+7.8 +2.5 69 +7 +7 1016.4 933.4
15 16.06 штиль 0 50 км 8/6 1000 м
[Cb cap Ac trans]
+3.4 +1.5 87 +2 +2 1017.2 932.9

 

Местоположение метеостанции Талая (Магаданская область, Россия): широта 61.13 долгота 152.30 высота над уровнем моря 708 м.

В архиве по умолчанию представлена погода в Талой за последнюю неделю. Архивные данные за месяц целиком и за предыдущие месяцы, начиная с января 2011 года, Вы можете получить, выбрав интересующий диапазон дат из раскрывающегося списка и нажав кнопку "Ввод!".


*Определитесь, кто Вы:
робот инопланетянин человек

Внимание! Время в таблицах - всемирное. Для получения местного времени необходимо прибавить поправку, которая равна 11 ч.

Смотрите также архив погоды в соседних городах и на ближайших метеорологических станциях:

Погода в Мадауне (Магаданская область, Россия) (105 км)
Погода в Палатке (Магаданская область, Россия) (138 км)
Погода в Усть-Бохапче (Магаданская область, Россия) (140 км)
Погода в Усть-Омчуге (Магаданская область, Россия) (145 км)
Погода в Среднекане (Магаданская область, Россия) (147 км)
Погода на Озере Джека Лондона (Магаданская область, Россия) (182 км)
Погода в Оле (Магаданская область, Россия) (185 км)
Погода на Шелихова (Магаданская область, Россия) (195 км)
Погода в Брохово (Магаданская область, Россия) (195 км)
Погода в Магадане (Магаданская область, Россия) (197 км)

Пояснения к столбцам:

Ветер - указаны скорость ветра в м/с - средняя за 10 мин, порывы в срок и между сроками (в фигурных скобках) и направление, откуда дует ветер: С - северный, СВ - северо-восточный, В - восточный, ЮВ - юго-восточный, Ю - южный, ЮЗ - юго-западный, З - западный, СЗ - северо-западный.
Видимость - горизонтальная дальность видимости в метрах или километрах. При видимости от 1 до 10 км при отсутствии осадков обычно наблюдается дымка, при ухудшении видимости до 1 км и менее - туман. В сухую погоду видимость может ухудшаться дымом, пылью или мглою.
Явления - указаны атмосферные явления, наблюдавшиеся в срок или в последний час перед сроком; фигурными скобками обозначены явления, наблюдавшиеся между сроками (за 1-3 часа до срока); квадратными скобками обозначены град или гололедные отложения с указанием их диаметра в мм.
Облачность - указаны через наклонную черту общая и нижняя облачность в баллах и высота нижней границы облаков в метрах; квадратными скобками обозначены формы облаков: Ci - перистые, Cs - перисто-слоистые, Cc - перисто-кучевые, Ac - высококучевые, As - высокослоистые, Sc - слоисто-кучевые, Ns - слоисто-дождевые, Cu - кучевые, Cb - кучево-дождевые. Подробнее классификацию облаков см. в Атласе облаков (PDF).
T - Температура воздуха - температура, измеренная на высоте 2 м над землей.
Td - Температура точки росы - температура, при понижении до которой содержащийся в воздухе водяной пар достигнет насыщения.
f - Относительная влажность воздуха - влажноcть воздуха, измеренная на высоте 2 м над землей.
Te - Эффективная температура - температура, которую ощущает одетый по сезону человек в тени. Характеристика душности погоды. При расчете учитывается влияние влажности воздуха и скорости ветра на теплоощущения человека.
Tes - Эффективная температура на солнце - температура, которую ощущает человек, с поправкой на солнечный нагрев. Характеристика знойности погоды. Зависит от высоты солнца над горизонтом, облачности и скорости ветра. Ночью, в пасмурную погоду, а также при ветре 12 м/с и более поправка равна нулю.
P - Атмосферное давление - приведенное к уровню моря атмосферное давление.
Po - Атмосферное давление - измеренное на уровне метеостанции атмосферное давление.
Tmin - Минимальная температура - минимум температуры воздуха на высоте 2 м над землей.
Tmax - Максимальная температура - максимум температуры воздуха на высоте 2 м над землей.
R - Количество осадков - Количество выпавших осадков за период времени, мм. При наведении курсора мыши на число - период времени, за который выпало указанное количество осадков.
R24 - Количество осадков - Количество выпавших осадков за 24 часа, мм.
S - Снежный покров - Высота снежного покрова, см. При наведении курсора мыши на число - состояние снежного покрова и степень покрытия местности в баллах.